Regional Weather Roundup
Issued by NWS State College, PA

Home | Current Version | Previous Version | Graphics & Text | Print | Product List | Glossary On
Versions: 1 2 3 4 5 6 7 8 9 10 11 12 13 14 15 16 17 18 19 20 21 22 23 24 25 26 27 28 29 30 31 32 33 34 35 36 37 38 39 40 41 42 43 44 45 46 47 48 49 50
000
ASUS41 KCTP 271403
RWRCTP

REGIONAL WEATHER ROUNDUP
NATIONAL WEATHER SERVICE STATE COLLEGE PA
900 AM EST FRI FEB 27 2015

Note: "fair" indicates few or no clouds below 12,000 feet with no
significant weather and/or obstructions to visibility.

* = STATION THAT DOES NOT REPORT PRECIPITATION /E.G. RAIN...SNOW...ETC/
    THUNDER OR FOG.

PAZ002>004-007>009-013>016-020>023-029>032-271500-
WESTERN PENNSYLVANIA

CITY           SKY/WX    TMP DP  RH WIND       PRES   REMARKS
ERIE           MOSUNNY    0  -5  79 SW5       30.50R WCI -10
MEADVILLE        N/A     -1  -4  87 W3        30.40R
FRANKLIN*      SUNNY      1  -2  85 CALM      30.39R
NEW CASTLE     FAIR       1  -3  83 CALM      30.48R
BEAVER COUNTY  SUNNY      3   0  85 NW3       30.44R
BUTLER*        SUNNY      3   0  85 CALM      30.44R
PITTSBURGH INT MOSUNNY    5   0  79 NW7       30.45R WCI  -7
PITTSBURGH     MOSUNNY    7  -1  70 W3        30.43R
INDIANA*       CLOUDY     5   1  85 CALM      30.44R
LATROBE        NOT AVBL
WASHINGTON CO* MOSUNNY    9   1  72 NW3       30.45R
$$

PAZ004>006-010>012-017>019-024>028-033>037-041-042-045-046-049>053-271500-
CENTRAL PENNSYLVANIA

CITY           SKY/WX    TMP DP  RH WIND       PRES   REMARKS
BRADFORD       PTSUNNY    3  -2  79 CALM      30.28R
DUBOIS         SUNNY      2   0  91 SW3       30.32R
CLEARFIELD     SUNNY      7   3  84 CALM      30.35R
JOHNSTOWN      LGT SNOW   5   0  79 W7        30.27R VSB 1   WCI  -7
ALTOONA        SUNNY     10   1  67 VRB3      30.35R
STATE COLLEGE  PTSUNNY   12   3  67 N3        30.38
WILLIAMSPORT   SUNNY     14   1  56 W5        30.43R WCI   6
SELINSGROVE    CLOUDY    15   2  56 N7        30.43R WCI   5
FT INDIANTOWN  SUNNY     17   3  56 NW6       30.41R WCI   8
CAPITAL CITY   SUNNY     19   5  54 N7        30.42R WCI  10
HARRISBURG     MOSUNNY   18   4  54 N14       30.41R WCI   4
YORK           CLOUDY    19   7  59 N12       30.40R WCI   7
$$

PAZ038>040-043-044-047-048-054-055-060>062-067>071-271500-
EASTERN PENNSYLVANIA

CITY           SKY/WX    TMP DP  RH WIND       PRES   REMARKS
SCRANTON       FLURRIES  12  -1  56 N5        30.37R WCI   4
MOUNT POCONO   SUNNY      9  -4  55 N9        30.25R WCI  -4
ALLENTOWN      CLOUDY    16   3  56 N7        30.40R WCI   6
QUAKERTOWN*    CLOUDY    18   5  57 N6        30.38R WCI   9
READING        CLOUDY    17   4  56 N8        30.40R WCI   7
LANCASTER      PTSUNNY   18   8  65 N8        30.39R WCI   8
COATESVILLE    MOSUNNY   19  14  79 N7        30.36R WCI  10
POTTSTOWN      SUNNY     19   7  59 N9        30.40R WCI   8
BLUE BELL      MOSUNNY   23  12  63 N3        30.38R
DOYLESTOWN     SUNNY     18   7  62 N7        30.37R WCI   9
WILLOW GROVE   NOT AVBL
NORTH PHILA    CLOUDY    23   9  55 N9        30.41R WCI  13
PHILADELPHIA   PTSUNNY   23  15  71 N8        30.41R WCI  14
$$


USA.gov is the U.S. government's official web portal to all federal, state and local government web resources and services.